Tracking 20093 objects as of 14-Dec-2019
HD Live streaming from Space Station
objects crossing your sky now

GORIZONT 30

Track GORIZONT 30 now!
GORIZONT 30 is classified as:


NORAD ID: 23108
Int'l Code: 1994-030A
Perigee: 35,773.9 km
Apogee: 35,805.7 km
Inclination: 14.8 °
Period: 1,435.9 minutes
Semi major axis: 42160 km
RCS: 12.5892 m2 (large)
Launch date: May 20, 1994
Source: Commonwealth of Independent States (former USSR) (CIS)
Launch site: TYURATAM MISSILE AND SPACE COMPLEX (TTMTR)
aabbcc
Your satellite tracking list
Your tracking list is empty




NASA's NSSDC Master Catalog

Two Line Element Set (TLE):
1 23108U 94030A   19347.84072045 -.00000143 +00000-0 +00000-0 0  9993
2 23108 014.8322 007.4117 0003771 294.1494 066.5802 01.00285690093647
Source of the keplerian elements: AFSPC